KOZAKOV Weather Reports


time (UTC)temp
C
wind
direction
speed
KPH
gust
KPH
rain 1hr
cm
rain 24hr
cm
rain mn
cm
humidity
%
barometer
mb
20260507053017 7 246 14.5 20.9 0.00 0.00 0.00 100
20260507052518 7 257 17.7 20.9 0.00 0.00 0.00 100
20260507052019 7 248 25.7 29.0 0.00 0.00 0.00 100
20260507051518 7 249 17.7 20.9 0.00 0.00 0.00 100
20260507051017 7 242 17.7 25.7 0.00 0.00 0.00 100
20260507050517 7 237 17.7 25.7 0.00 0.00 0.00 100
20260507050018 7 247 17.7 25.7 0.00 0.00 0.00 100
20260507045517 7 245 17.7 20.9 0.00 0.00 0.00 100
20260507045018 7 248 14.5 17.7 0.00 0.00 0.00 100
20260507044525 7 245 14.5 20.9 0.00 0.00 0.00 100
20260507044024 7 247 14.5 17.7 0.00 0.00 0.00 100
20260507043518 7 257 17.7 17.7 0.00 0.00 0.00 100
20260507043017 7 253 17.7 20.9 0.00 0.00 0.00 100
20260507042517 7 247 17.7 20.9 0.00 0.00 0.00 100
20260507042017 7 265 11.3 17.7 0.00 0.00 0.00 100
20260507041523 7 250 14.5 25.7 0.00 0.00 0.00 100
20260507041017 7 250 14.5 14.5 0.00 0.00 0.00 100
20260507040518 7 246 14.5 17.7 0.00 0.00 0.00 100
20260507040018 7 246 14.5 14.5 0.00 0.00 0.00 100
20260507035517 7 242 11.3 14.5 0.00 0.00 0.00 100
20260507035018 7 232 14.5 17.7 0.00 0.00 0.00 100
20260507034517 7 229 11.3 14.5 0.00 0.00 0.00 100
20260507034017 7 228 11.3 14.5 0.00 0.00 0.00 100
20260507033518 7 226 11.3 17.7 0.00 0.00 0.00 100
20260507033017 7 219 6.4 11.3 0.00 0.00 0.00 100
20260507032517 7 207 11.3 17.7 0.00 0.00 0.00 100
20260507032020 7 222 11.3 14.5 0.00 0.00 0.00 100
20260507031517 7 216 11.3 14.5 0.00 0.00 0.00 100
20260507031015 7 217 11.3 14.5 0.00 0.00 0.00 100
20260507030517 7 201 11.3 17.7 0.00 0.00 0.00 100
20260507030017 7 223 11.3 17.7 0.00 0.00 0.00 100
20260507025517 7 205 11.3 14.5 0.00 0.00 0.00 100
20260507025017 7 228 14.5 17.7 0.00 0.00 0.00 100
20260507024518 7 220 11.3 14.5 0.00 0.00 0.00 100
20260507024017 7 217 11.3 17.7 0.00 0.00 0.00 100
20260507023517 7 214 11.3 14.5 0.00 0.00 0.00 100
20260507023018 7 211 14.5 17.7 0.00 0.00 0.00 100
20260507022517 7 244 14.5 17.7 0.00 0.00 0.00 100
20260507022018 7 224 11.3 14.5 0.00 0.00 0.00 100
20260507021518 7 228 17.7 20.9 0.00 0.00 0.00 100
20260507021017 7 240 14.5 17.7 0.00 0.00 0.00 100
20260507020525 7 238 14.5 17.7 0.00 0.00 0.00 100
20260507020017 7 246 11.3 14.5 0.00 0.00 0.00 100
20260507015517 7 237 14.5 17.7 0.00 0.00 0.00 100
20260507015017 7 232 17.7 20.9 0.00 0.00 0.00 100
20260507014517 7 230 17.7 20.9 0.00 0.00 0.00 100
20260507014018 7 236 17.7 20.9 0.00 0.00 0.00 100
20260507013517 7 234 17.7 20.9 0.00 0.00 0.00 100
20260507013019 7 221 11.3 14.5 0.00 0.00 0.00 100
20260507012518 7 225 11.3 14.5 0.00 0.00 0.00 100
20260507012011 7 240 14.5 17.7 0.00 0.00 0.00 100
20260507011517 7 249 14.5 14.5 0.00 0.00 0.00 100
20260507011018 7 264 14.5 17.7 0.00 0.00 0.00 100
20260507010018 7 267 14.5 17.7 0.00 0.00 0.00 100
20260507005516 7 267 17.7 20.9 0.00 0.00 0.00 100
20260507005017 7 269 14.5 17.7 0.00 0.00 0.00 100
20260507004511 7 281 17.7 20.9 0.00 0.00 0.00 100
20260507004017 8 266 14.5 25.7 0.00 0.00 0.00 100
20260507003517 8 271 20.9 29.0 0.00 0.00 0.00 100
20260507003017 8 270 20.9 25.7 0.00 0.00 0.00 100
20260507002518 8 271 17.7 20.9 0.00 0.00 0.00 100
20260507002019 8 271 14.5 17.7 0.00 0.00 0.00 100
20260507001519 8 275 17.7 20.9 0.00 0.00 0.00 100
20260507001017 8 265 14.5 17.7 0.00 0.00 0.00 100
20260507000518 7 263 11.3 14.5 0.00 0.00 0.00 100
20260507000018 7 244 6.4 6.4 0.00 0.00 0.00 100
20260506235518 7 88 0.0 3.2 0.00 0.00 0.00 100
20260506235017 7 89 6.4 11.3 0.00 0.00 0.00 100
20260506234517 7 91 11.3 11.3 0.00 0.00 0.00 100
20260506234018 7 79 11.3 11.3 0.00 0.00 0.00 100
20260506233518 7 71 14.5 17.7 0.00 0.00 0.00 100
20260506233017 7 77 14.5 14.5 0.00 0.00 0.00 100
20260506232521 8 61 14.5 14.5 0.00 0.00 0.00 100
20260506232019 7 67 14.5 14.5 0.00 0.00 0.00 100
20260506231517 8 83 20.9 25.7 0.00 0.00 0.00 100
20260506231017 8 65 25.7 29.0 0.00 0.00 0.00 100
20260506230518 7 90 17.7 20.9 0.00 0.00 0.00 100
20260506230018 8 139 14.5 17.7 0.00 0.00 0.00 100
20260506225517 8 181 14.5 14.5 0.00 0.00 0.00 100
20260506225018 8 193 17.7 20.9 0.00 0.00 0.00 100
20260506224517 8 208 11.3 14.5 0.00 0.00 0.00 100
20260506224018 8 216 14.5 17.7 0.00 0.00 0.00 100
20260506223518 8 227 11.3 17.7 0.00 0.00 0.00 100
20260506223017 8 232 17.7 25.7 0.00 0.00 0.00 100
20260506222520 8 224 11.3 14.5 0.00 0.00 0.00 100
20260506222023 8 237 17.7 25.7 0.00 0.00 0.00 100
20260506221517 8 240 17.7 20.9 0.00 0.00 0.00 100
20260506221017 8 229 14.5 25.7 0.00 0.00 0.00 100
20260506220518 8 234 11.3 14.5 0.00 0.00 0.00 100
20260506220018 8 232 11.3 14.5 0.00 0.00 0.00 100
20260506215517 8 207 11.3 17.7 0.00 0.00 0.00 100
20260506215017 8 160 11.3 11.3 0.00 0.00 0.00 100
20260506214517 12 195 3.2 6.4 0.00 0.00 0.00 100
20260506214018 11 60 0.0 0.0 0.00 0.00 0.00 100
20260506213517 11 61 6.4 6.4 0.00 0.00 0.00 100
20260506213018 11 49 11.3 11.3 0.00 0.00 0.00 100
20260506212517 10 55 14.5 14.5 0.00 0.00 0.00 100
20260506212027 10 68 17.7 20.9 0.00 0.00 0.00 100
20260506211518 10 58 20.9 20.9 0.00 0.00 0.00 100
20260506211017 10 54 20.9 20.9 0.00 0.00 0.00 100
20260506210517 10 64 20.9 25.7 0.00 0.00 0.00 100
20260506210017 10 44 25.7 25.7 0.00 0.00 0.00 100
20260506205517 10 36 20.9 20.9 0.00 0.00 0.00 100
20260506205010 10 25 17.7 20.9 0.00 0.00 0.00 100
20260506204518 10 21 17.7 17.7 0.00 0.00 0.00 100
20260506204010 10 357 0.0 11.3 0.00 0.00 0.00 100
20260506203518 10 346 0.0 6.4 0.00 0.00 0.00 100
20260506203018 10 18 0.0 3.2 0.00 0.00 0.00 100
20260506202510 10 12 0.0 3.2 0.00 0.00 0.00 100
20260506202019 10 11 11.3 17.7 0.00 0.00 0.00 100
20260506201524 10 12 6.4 14.5 0.00 0.00 0.00 100
20260506201017 11 11 14.5 17.7 0.00 0.00 0.00 100
20260506200518 12 31 6.4 6.4 0.00 0.00 0.00 100
20260506200018 11 35 14.5 17.7 0.00 0.00 0.00 100
20260506195517 10 36 11.3 11.3 0.00 0.00 0.00 100
20260506195025 12 27 11.3 11.3 0.00 0.00 0.00 100
20260506194517 12 35 17.7 17.7 0.00 0.00 0.00 100
20260506194018 12 53 17.7 17.7 0.00 0.00 0.00 100
20260506193518 11 47 20.9 20.9 0.00 0.00 0.00 100
20260506193018 11 52 20.9 20.9 0.00 0.00 0.00 100
20260506192517 11 50 20.9 20.9 0.00 0.00 0.00 100
20260506192018 11 53 20.9 20.9 0.00 0.00 0.00 100
20260506191517 11 56 20.9 20.9 0.00 0.00 0.00 100
20260506190019 8 72 17.7 17.7 0.00 0.00 0.00 100
20260506185522 8 61 20.9 20.9 0.00 0.00 0.00 100
20260506185018 8 62 20.9 25.7 0.00 0.00 0.00 100
20260506184517 8 60 20.9 25.7 0.00 0.00 0.00 100
20260506184018 8 54 25.7 25.7 0.00 0.00 0.00 100
20260506183517 8 60 25.7 29.0 0.00 0.00 0.00 100
20260506182517 8 69 20.9 25.7 0.00 0.00 0.00 100
20260506182019 8 70 25.7 25.7 0.00 0.00 0.00 100
20260506181517 8 74 29.0 32.2 0.00 0.00 0.00 100
20260506181016 10 73 25.7 32.2 0.00 0.00 0.00 100
20260506180517 10 85 25.7 32.2 0.00 0.00 0.00 100
20260506180017 10 86 20.9 29.0 0.00 0.00 0.00 100
20260506175518 11 108 17.7 20.9 0.00 0.00 0.00 100
20260506174017 11 146 11.3 11.3 0.00 0.00 0.00 100
20260506173517 11 138 14.5 14.5 0.00 0.00 0.00 100
20260506171511 12 178 11.3 14.5 0.00 0.00 0.00 96
20260506171019 12 215 11.3 11.3 0.00 0.00 0.00 90
20260506170510 12 203 6.4 6.4 0.00 0.00 0.00 84
20260506170011 12 304 6.4 6.4 0.00 0.00 0.00 83
20260506165511 13 304 3.2 6.4 0.00 0.00 0.00 82
20260506165018 13 304 3.2 6.4 0.00 0.00 0.00 77
20260506164517 13 304 3.2 3.2 0.00 0.00 0.00 77
20260506163517 13 304 3.2 3.2 0.00 0.00 0.00 76
20260506162516 13 304 0.0 0.0 0.00 0.00 0.00 76
20260506162024 13 304 3.2 3.2 0.00 0.00 0.00 75
20260506161518 13 304 3.2 6.4 0.00 0.00 0.00 75
20260506161017 13 304 3.2 3.2 0.00 0.00 0.00 75
20260506160518 13 304 0.0 0.0 0.00 0.00 0.00 75
20260506160018 13 304 0.0 0.0 0.00 0.00 0.00 77
20260506155518 13 304 0.0 0.0 0.00 0.00 0.00 79
20260506155011 13 304 0.0 0.0 0.00 0.00 0.00 78
20260506154517 13 304 0.0 0.0 0.00 0.00 0.00 77
20260506154010 13 304 0.0 3.2 0.00 0.00 0.00 78
20260506153525 13 304 3.2 6.4 0.00 0.00 0.00 77
20260506153017 13 264 6.4 6.4 0.00 0.00 0.00 77
20260506152517 13 316 6.4 11.3 0.00 0.00 0.00 77
20260506152018 13 286 3.2 6.4 0.00 0.00 0.00 75
20260506151517 13 283 6.4 11.3 0.00 0.00 0.00 77
20260506151017 13 265 6.4 11.3 0.00 0.00 0.00 76
20260506150518 13 299 6.4 6.4 0.00 0.00 0.00 77
20260506150017 13 285 11.3 14.5 0.00 0.00 0.00 75
20260506145518 15 283 11.3 14.5 0.00 0.00 0.00 74
20260506145017 16 290 6.4 11.3 0.00 0.00 0.00 74
20260506144518 15 236 14.5 17.7 0.00 0.00 0.00 73
20260506144025 15 246 11.3 17.7 0.00 0.00 0.00 74
20260506143518 15 269 6.4 11.3 0.00 0.00 0.00 78
20260506143018 16 269 6.4 11.3 0.00 0.00 0.00 77
20260506142518 16 228 6.4 11.3 0.00 0.00 0.00 77
20260506142019 16 279 3.2 11.3 0.00 0.00 0.00 80
20260506141518 15 233 11.3 14.5 0.00 0.00 0.00 79
20260506141016 15 226 3.2 6.4 0.00 0.00 0.00 83
20260506140518 15 263 11.3 17.7 0.00 0.00 0.00 83
20260506140018 16 267 3.2 6.4 0.00 0.00 0.00 85
20260506135518 15 297 0.0 3.2 0.00 0.00 0.00 88
20260506135018 15 252 3.2 11.3 0.00 0.00 0.00 88
20260506134515 15 259 11.3 14.5 0.00 0.00 0.00 90
20260506134009 15 241 11.3 17.7 0.00 0.00 0.00 90
20260506133518 15 221 14.5 17.7 0.00 0.00 0.00 92
20260506133017 15 229 6.4 14.5 0.00 0.00 0.00 94
20260506132517 13 236 17.7 20.9 0.00 0.00 0.00 93
20260506132019 13 244 17.7 25.7 0.00 0.00 0.00 93
20260506131517 15 260 6.4 14.5 0.00 0.00 0.00 97
20260506131017 15 256 11.3 17.7 0.00 0.00 0.00 100
20260506130524 13 240 14.5 17.7 0.00 0.00 0.00 100
20260506130018 13 254 14.5 17.7 0.00 0.00 0.00 100
20260506125518 13 239 20.9 25.7 0.00 0.00 0.00 100
20260506125017 13 224 20.9 25.7 0.00 0.00 0.00 100
20260506124518 15 232 11.3 17.7 0.00 0.00 0.00 100
20260506124018 13 243 11.3 14.5 0.00 0.00 0.00 100
20260506123518 15 205 6.4 11.3 0.00 0.00 0.00 100
20260506123017 13 241 14.5 25.7 0.00 0.00 0.00 100
20260506122517 13 242 17.7 25.7 0.00 0.00 0.00 100
20260506122019 12 248 6.4 17.7 0.00 0.00 0.00 100
20260506121517 12 253 17.7 25.7 0.00 0.00 0.00 100
20260506121017 12 248 14.5 25.7 0.00 0.00 0.00 100
20260506120518 12 229 11.3 17.7 0.00 0.00 0.00 100
20260506120017 12 215 14.5 17.7 0.00 0.00 0.00 100
20260506115517 12 241 11.3 14.5 0.00 0.00 0.00 100
20260506115017 12 233 17.7 20.9 0.00 0.00 0.00 100
20260506114517 12 254 14.5 17.7 0.00 0.00 0.00 100
20260506114016 12 231 20.9 20.9 0.00 0.00 0.00 100
20260506113517 12 242 14.5 20.9 0.00 0.00 0.00 100
20260506113018 12 222 14.5 17.7 0.00 0.00 0.00 100
20260506112517 12 241 17.7 20.9 0.00 0.00 0.00 100
20260506112020 12 245 17.7 20.9 0.00 0.00 0.00 100
20260506111518 12 250 14.5 25.7 0.00 0.00 0.00 100
20260506111018 11 247 17.7 25.7 0.00 0.00 0.00 100
20260506110517 12 238 17.7 20.9 0.00 0.00 0.00 100
20260506110017 11 249 17.7 20.9 0.00 0.00 0.00 100
20260506105518 11 237 14.5 17.7 0.00 0.00 0.00 100
20260506105018 11 235 14.5 25.7 0.00 0.00 0.00 100
20260506104519 11 215 11.3 17.7 0.00 0.00 0.00 100
20260506104017 11 226 14.5 17.7 0.00 0.00 0.00 100
20260506103517 11 233 14.5 20.9 0.00 0.00 0.00 100
20260506103018 11 250 20.9 25.7 0.00 0.00 0.00 100
20260506102517 11 223 14.5 17.7 0.00 0.00 0.00 100
20260506102024 11 226 14.5 20.9 0.00 0.00 0.00 100
20260506101518 11 235 14.5 17.7 0.00 0.00 0.00 100
20260506101017 10 233 11.3 17.7 0.00 0.00 0.00 100
20260506100517 10 242 14.5 17.7 0.00 0.00 0.00 100
20260506100017 10 246 11.3 14.5 0.00 0.00 0.00 100
20260506095518 10 246 14.5 20.9 0.00 0.00 0.00 100
20260506095018 10 248 17.7 17.7 0.00 0.00 0.00 100
20260506094518 10 248 17.7 20.9 0.00 0.00 0.00 100
20260506094018 10 248 17.7 25.7 0.00 0.00 0.00 100
20260506093518 10 242 14.5 20.9 0.00 0.00 0.00 100
20260506093018 10 245 17.7 20.9 0.00 0.00 0.00 100
20260506092522 10 243 11.3 14.5 0.00 0.00 0.00 100
20260506092021 8 240 11.3 17.7 0.00 0.00 0.00 100
20260506091517 8 238 17.7 20.9 0.00 0.00 0.00 100
20260506091017 8 255 14.5 17.7 0.00 0.00 0.00 100
20260506090518 8 247 17.7 25.7 0.00 0.00 0.00 100
20260506090017 8 258 17.7 25.7 0.00 0.00 0.00 100
20260506085518 8 259 17.7 25.7 0.00 0.00 0.00 100
20260506085017 8 256 20.9 25.7 0.00 0.00 0.00 100
20260506084517 8 251 20.9 25.7 0.00 0.00 0.00 100
20260506084017 8 256 17.7 25.7 0.00 0.00 0.00 100
20260506083516 8 242 17.7 20.9 0.00 0.00 0.00 100
20260506083018 8 231 14.5 20.9 0.00 0.00 0.00 100
20260506082518 8 232 6.4 6.4 0.00 0.00 0.00 100
20260506082019 8 242 14.5 17.7 0.00 0.00 0.00 100
20260506081517 8 219 11.3 17.7 0.00 0.00 0.00 100
20260506081019 8 252 14.5 17.7 0.00 0.00 0.00 100
20260506080524 7 244 14.5 14.5 0.00 0.00 0.00 100
20260506073517 7 245 14.5 17.7 0.00 0.00 0.00 100
20260506073017 7 253 14.5 17.7 0.00 0.00 0.00 100
20260506072518 7 245 17.7 20.9 0.00 0.00 0.00 100
20260506072020 7 237 14.5 17.7 0.00 0.00 0.00 100
20260506071517 7 241 17.7 25.7 0.00 0.00 0.00 100
20260506071017 7 258 20.9 25.7 0.00 0.00 0.00 100
20260506070518 7 249 25.7 32.2 0.00 0.00 0.00 100
20260506062021 7 251 25.7 32.2 0.00 0.00 0.00 100
20260506061518 7 264 17.7 29.0 0.00 0.00 0.00 100
20260506061017 7 258 17.7 32.2 0.00 0.00 0.00 100
20260506060517 7 248 20.9 29.0 0.00 0.00 0.00 100